<?xml version="1.0" encoding="UTF-8" standalone="no" ?>
<gpx xmlns="http://www.topografix.com/GPX/1/1" xmlns:xsi="http://www.w3.org/2001/XMLSchema-instance" xsi:schemaLocation="http://www.topografix.com/GPX/1/1 http://www.topografix.com/GPX/1/1/gpx.xsd" version="1.1" creator="VisuGPX - https://www.visugpx.com">
  <metadata>
    <name>Eourres</name>
    <desc><![CDATA[04-05-2012]]></desc>
  </metadata>
  <trk>
    <name><![CDATA[ACTIVE LOG114856]]></name>
    <trkseg>
      <trkpt lat="44.21389" lon="5.69588">
        <ele>951.449</ele>
        <time>2012-05-04T09:48:56Z</time>
      </trkpt>
      <trkpt lat="44.21388" lon="5.6959">
        <ele>949.153</ele>
        <time>2012-05-04T09:49:00Z</time>
      </trkpt>
      <trkpt lat="44.21388" lon="5.6959">
        <ele>947.398</ele>
        <time>2012-05-04T09:49:03Z</time>
      </trkpt>
      <trkpt lat="44.21387" lon="5.69593">
        <ele>943.857</ele>
        <time>2012-05-04T09:49:08Z</time>
      </trkpt>
      <trkpt lat="44.21387" lon="5.69595">
        <ele>942.968</ele>
        <time>2012-05-04T09:49:10Z</time>
      </trkpt>
      <trkpt lat="44.21386" lon="5.69598">
        <ele>941.097</ele>
        <time>2012-05-04T09:49:14Z</time>
      </trkpt>
      <trkpt lat="44.21386" lon="5.69605">
        <ele>938.042</ele>
        <time>2012-05-04T09:49:21Z</time>
      </trkpt>
      <trkpt lat="44.21386" lon="5.6961">
        <ele>936.982</ele>
        <time>2012-05-04T09:49:25Z</time>
      </trkpt>
      <trkpt lat="44.21386" lon="5.69613">
        <ele>935.81</ele>
        <time>2012-05-04T09:49:27Z</time>
      </trkpt>
      <trkpt lat="44.21387" lon="5.69618">
        <ele>935.349</ele>
        <time>2012-05-04T09:49:31Z</time>
      </trkpt>
      <trkpt lat="44.21386" lon="5.69622">
        <ele>935.295</ele>
        <time>2012-05-04T09:49:33Z</time>
      </trkpt>
      <trkpt lat="44.21391" lon="5.69638">
        <ele>933.091</ele>
        <time>2012-05-04T09:49:50Z</time>
      </trkpt>
      <trkpt lat="44.21396" lon="5.69647">
        <ele>930.922</ele>
        <time>2012-05-04T09:50:01Z</time>
      </trkpt>
      <trkpt lat="44.21395" lon="5.69668">
        <ele>929.599</ele>
        <time>2012-05-04T09:50:16Z</time>
      </trkpt>
      <trkpt lat="44.21393" lon="5.6967">
        <ele>929.06</ele>
        <time>2012-05-04T09:50:25Z</time>
      </trkpt>
      <trkpt lat="44.21389" lon="5.69671">
        <ele>928.654</ele>
        <time>2012-05-04T09:50:36Z</time>
      </trkpt>
      <trkpt lat="44.21384" lon="5.69681">
        <ele>929.429</ele>
        <time>2012-05-04T09:50:44Z</time>
      </trkpt>
      <trkpt lat="44.21383" lon="5.69683">
        <ele>929.321</ele>
        <time>2012-05-04T09:50:47Z</time>
      </trkpt>
      <trkpt lat="44.21378" lon="5.69694">
        <ele>930.521</ele>
        <time>2012-05-04T09:50:59Z</time>
      </trkpt>
      <trkpt lat="44.21375" lon="5.69703">
        <ele>932.808</ele>
        <time>2012-05-04T09:51:08Z</time>
      </trkpt>
      <trkpt lat="44.2137" lon="5.69709">
        <ele>934.37</ele>
        <time>2012-05-04T09:51:20Z</time>
      </trkpt>
      <trkpt lat="44.21365" lon="5.69717">
        <ele>935.598</ele>
        <time>2012-05-04T09:51:29Z</time>
      </trkpt>
      <trkpt lat="44.21365" lon="5.6972">
        <ele>935.475</ele>
        <time>2012-05-04T09:51:33Z</time>
      </trkpt>
      <trkpt lat="44.21361" lon="5.69725">
        <ele>936.312</ele>
        <time>2012-05-04T09:51:40Z</time>
      </trkpt>
      <trkpt lat="44.21358" lon="5.69729">
        <ele>936.314</ele>
        <time>2012-05-04T09:51:43Z</time>
      </trkpt>
      <trkpt lat="44.21357" lon="5.69734">
        <ele>936.868</ele>
        <time>2012-05-04T09:51:48Z</time>
      </trkpt>
      <trkpt lat="44.21354" lon="5.69742">
        <ele>937.63</ele>
        <time>2012-05-04T09:51:54Z</time>
      </trkpt>
      <trkpt lat="44.21353" lon="5.69746">
        <ele>937.805</ele>
        <time>2012-05-04T09:51:57Z</time>
      </trkpt>
      <trkpt lat="44.2135" lon="5.69754">
        <ele>938.761</ele>
        <time>2012-05-04T09:52:03Z</time>
      </trkpt>
      <trkpt lat="44.2135" lon="5.6976">
        <ele>939.343</ele>
        <time>2012-05-04T09:52:07Z</time>
      </trkpt>
      <trkpt lat="44.21347" lon="5.69764">
        <ele>939.546</ele>
        <time>2012-05-04T09:52:11Z</time>
      </trkpt>
      <trkpt lat="44.21341" lon="5.69767">
        <ele>940.146</ele>
        <time>2012-05-04T09:52:16Z</time>
      </trkpt>
      <trkpt lat="44.21333" lon="5.69777">
        <ele>942.288</ele>
        <time>2012-05-04T09:52:26Z</time>
      </trkpt>
      <trkpt lat="44.21323" lon="5.69784">
        <ele>943.258</ele>
        <time>2012-05-04T09:52:39Z</time>
      </trkpt>
      <trkpt lat="44.21315" lon="5.69792">
        <ele>945.075</ele>
        <time>2012-05-04T09:52:49Z</time>
      </trkpt>
      <trkpt lat="44.21313" lon="5.69794">
        <ele>945.592</ele>
        <time>2012-05-04T09:52:53Z</time>
      </trkpt>
      <trkpt lat="44.21306" lon="5.698">
        <ele>946.636</ele>
        <time>2012-05-04T09:53:04Z</time>
      </trkpt>
      <trkpt lat="44.21302" lon="5.69808">
        <ele>949.42</ele>
        <time>2012-05-04T09:53:17Z</time>
      </trkpt>
      <trkpt lat="44.21293" lon="5.6981">
        <ele>950.294</ele>
        <time>2012-05-04T09:53:37Z</time>
      </trkpt>
      <trkpt lat="44.21288" lon="5.69811">
        <ele>951.095</ele>
        <time>2012-05-04T09:53:44Z</time>
      </trkpt>
      <trkpt lat="44.21282" lon="5.69811">
        <ele>953.305</ele>
        <time>2012-05-04T09:53:54Z</time>
      </trkpt>
      <trkpt lat="44.21277" lon="5.69822">
        <ele>952.68</ele>
        <time>2012-05-04T09:54:01Z</time>
      </trkpt>
      <trkpt lat="44.21274" lon="5.69829">
        <ele>954.08</ele>
        <time>2012-05-04T09:54:05Z</time>
      </trkpt>
      <trkpt lat="44.21271" lon="5.69841">
        <ele>953.943</ele>
        <time>2012-05-04T09:54:15Z</time>
      </trkpt>
      <trkpt lat="44.2127" lon="5.6985">
        <ele>954.414</ele>
        <time>2012-05-04T09:54:23Z</time>
      </trkpt>
      <trkpt lat="44.2127" lon="5.69866">
        <ele>955.125</ele>
        <time>2012-05-04T09:54:36Z</time>
      </trkpt>
      <trkpt lat="44.21266" lon="5.69874">
        <ele>955.613</ele>
        <time>2012-05-04T09:54:41Z</time>
      </trkpt>
      <trkpt lat="44.21272" lon="5.69869">
        <ele>955.92</ele>
        <time>2012-05-04T09:54:43Z</time>
      </trkpt>
      <trkpt lat="44.21268" lon="5.69878">
        <ele>955.671</ele>
        <time>2012-05-04T09:54:50Z</time>
      </trkpt>
      <trkpt lat="44.21267" lon="5.69885">
        <ele>957.434</ele>
        <time>2012-05-04T09:54:54Z</time>
      </trkpt>
      <trkpt lat="44.21258" lon="5.69903">
        <ele>958.616</ele>
        <time>2012-05-04T09:55:08Z</time>
      </trkpt>
      <trkpt lat="44.21255" lon="5.69912">
        <ele>959.666</ele>
        <time>2012-05-04T09:55:24Z</time>
      </trkpt>
      <trkpt lat="44.21251" lon="5.6992">
        <ele>960.071</ele>
        <time>2012-05-04T09:55:56Z</time>
      </trkpt>
      <trkpt lat="44.21244" lon="5.69929">
        <ele>961.819</ele>
        <time>2012-05-04T09:56:05Z</time>
      </trkpt>
      <trkpt lat="44.21236" lon="5.69941">
        <ele>962.85</ele>
        <time>2012-05-04T09:56:18Z</time>
      </trkpt>
      <trkpt lat="44.21237" lon="5.69941">
        <ele>963</ele>
        <time>2012-05-04T09:56:23Z</time>
      </trkpt>
      <trkpt lat="44.2124" lon="5.69942">
        <ele>962.756</ele>
        <time>2012-05-04T09:56:27Z</time>
      </trkpt>
      <trkpt lat="44.21247" lon="5.69949">
        <ele>964.222</ele>
        <time>2012-05-04T09:56:36Z</time>
      </trkpt>
      <trkpt lat="44.21251" lon="5.6996">
        <ele>966.009</ele>
        <time>2012-05-04T09:56:49Z</time>
      </trkpt>
      <trkpt lat="44.21253" lon="5.69975">
        <ele>967.911</ele>
        <time>2012-05-04T09:57:06Z</time>
      </trkpt>
      <trkpt lat="44.21257" lon="5.69985">
        <ele>969.413</ele>
        <time>2012-05-04T09:57:17Z</time>
      </trkpt>
      <trkpt lat="44.21259" lon="5.69995">
        <ele>971.261</ele>
        <time>2012-05-04T09:57:28Z</time>
      </trkpt>
      <trkpt lat="44.21261" lon="5.70005">
        <ele>972.433</ele>
        <time>2012-05-04T09:57:38Z</time>
      </trkpt>
      <trkpt lat="44.21265" lon="5.70015">
        <ele>973.83</ele>
        <time>2012-05-04T09:57:49Z</time>
      </trkpt>
      <trkpt lat="44.21264" lon="5.70026">
        <ele>975.974</ele>
        <time>2012-05-04T09:58:00Z</time>
      </trkpt>
      <trkpt lat="44.21267" lon="5.70035">
        <ele>977.619</ele>
        <time>2012-05-04T09:58:13Z</time>
      </trkpt>
      <trkpt lat="44.21265" lon="5.7004">
        <ele>978.108</ele>
        <time>2012-05-04T09:58:19Z</time>
      </trkpt>
      <trkpt lat="44.21263" lon="5.7005">
        <ele>980.036</ele>
        <time>2012-05-04T09:58:28Z</time>
      </trkpt>
      <trkpt lat="44.2126" lon="5.70056">
        <ele>980.82</ele>
        <time>2012-05-04T09:58:34Z</time>
      </trkpt>
      <trkpt lat="44.21255" lon="5.70067">
        <ele>982.63</ele>
        <time>2012-05-04T09:58:47Z</time>
      </trkpt>
      <trkpt lat="44.2125" lon="5.70073">
        <ele>984.729</ele>
        <time>2012-05-04T09:58:57Z</time>
      </trkpt>
      <trkpt lat="44.21247" lon="5.70082">
        <ele>986.217</ele>
        <time>2012-05-04T09:59:07Z</time>
      </trkpt>
      <trkpt lat="44.21245" lon="5.7009">
        <ele>987.56</ele>
        <time>2012-05-04T09:59:16Z</time>
      </trkpt>
      <trkpt lat="44.21247" lon="5.701">
        <ele>988.608</ele>
        <time>2012-05-04T09:59:25Z</time>
      </trkpt>
      <trkpt lat="44.2125" lon="5.70106">
        <ele>989.918</ele>
        <time>2012-05-04T09:59:33Z</time>
      </trkpt>
      <trkpt lat="44.21251" lon="5.70109">
        <ele>990.319</ele>
        <time>2012-05-04T09:59:47Z</time>
      </trkpt>
      <trkpt lat="44.21251" lon="5.70117">
        <ele>992.101</ele>
        <time>2012-05-04T10:00:06Z</time>
      </trkpt>
      <trkpt lat="44.2125" lon="5.70128">
        <ele>994.364</ele>
        <time>2012-05-04T10:00:18Z</time>
      </trkpt>
      <trkpt lat="44.21251" lon="5.70132">
        <ele>995.122</ele>
        <time>2012-05-04T10:00:38Z</time>
      </trkpt>
      <trkpt lat="44.21252" lon="5.70137">
        <ele>996.268</ele>
        <time>2012-05-04T10:00:52Z</time>
      </trkpt>
      <trkpt lat="44.21247" lon="5.70145">
        <ele>998.038</ele>
        <time>2012-05-04T10:01:01Z</time>
      </trkpt>
      <trkpt lat="44.21247" lon="5.70156">
        <ele>999.167</ele>
        <time>2012-05-04T10:01:11Z</time>
      </trkpt>
      <trkpt lat="44.21248" lon="5.70166">
        <ele>1000.539</ele>
        <time>2012-05-04T10:01:21Z</time>
      </trkpt>
      <trkpt lat="44.21246" lon="5.70178">
        <ele>1002.392</ele>
        <time>2012-05-04T10:01:31Z</time>
      </trkpt>
      <trkpt lat="44.21244" lon="5.70189">
        <ele>1003.779</ele>
        <time>2012-05-04T10:01:42Z</time>
      </trkpt>
      <trkpt lat="44.21236" lon="5.70188">
        <ele>1004.697</ele>
        <time>2012-05-04T10:01:53Z</time>
      </trkpt>
      <trkpt lat="44.21237" lon="5.70191">
        <ele>1004.605</ele>
        <time>2012-05-04T10:02:08Z</time>
      </trkpt>
      <trkpt lat="44.21246" lon="5.70186">
        <ele>1003.433</ele>
        <time>2012-05-04T10:02:21Z</time>
      </trkpt>
      <trkpt lat="44.21247" lon="5.70183">
        <ele>1002.755</ele>
        <time>2012-05-04T10:02:24Z</time>
      </trkpt>
      <trkpt lat="44.21248" lon="5.7018">
        <ele>1002.336</ele>
        <time>2012-05-04T10:02:26Z</time>
      </trkpt>
      <trkpt lat="44.21248" lon="5.70153">
        <ele>999.196</ele>
        <time>2012-05-04T10:02:44Z</time>
      </trkpt>
      <trkpt lat="44.21252" lon="5.70133">
        <ele>996.389</ele>
        <time>2012-05-04T10:02:58Z</time>
      </trkpt>
      <trkpt lat="44.21249" lon="5.70119">
        <ele>993.145</ele>
        <time>2012-05-04T10:03:12Z</time>
      </trkpt>
      <trkpt lat="44.2125" lon="5.7011">
        <ele>990.953</ele>
        <time>2012-05-04T10:03:21Z</time>
      </trkpt>
      <trkpt lat="44.21254" lon="5.70111">
        <ele>990.671</ele>
        <time>2012-05-04T10:03:23Z</time>
      </trkpt>
      <trkpt lat="44.21259" lon="5.70114">
        <ele>990.722</ele>
        <time>2012-05-04T10:03:28Z</time>
      </trkpt>
      <trkpt lat="44.21263" lon="5.70118">
        <ele>990.678</ele>
        <time>2012-05-04T10:03:34Z</time>
      </trkpt>
      <trkpt lat="44.21266" lon="5.70121">
        <ele>990.916</ele>
        <time>2012-05-04T10:03:38Z</time>
      </trkpt>
      <trkpt lat="44.21273" lon="5.70128">
        <ele>990.81</ele>
        <time>2012-05-04T10:03:46Z</time>
      </trkpt>
      <trkpt lat="44.21277" lon="5.70132">
        <ele>990.508</ele>
        <time>2012-05-04T10:03:50Z</time>
      </trkpt>
      <trkpt lat="44.21278" lon="5.70136">
        <ele>990.236</ele>
        <time>2012-05-04T10:03:53Z</time>
      </trkpt>
      <trkpt lat="44.2128" lon="5.70139">
        <ele>990.563</ele>
        <time>2012-05-04T10:03:57Z</time>
      </trkpt>
      <trkpt lat="44.21281" lon="5.70142">
        <ele>989.821</ele>
        <time>2012-05-04T10:03:59Z</time>
      </trkpt>
      <trkpt lat="44.21283" lon="5.70149">
        <ele>989.254</ele>
        <time>2012-05-04T10:04:03Z</time>
      </trkpt>
      <trkpt lat="44.21287" lon="5.70155">
        <ele>989.464</ele>
        <time>2012-05-04T10:04:08Z</time>
      </trkpt>
      <trkpt lat="44.21289" lon="5.70158">
        <ele>989.43</ele>
        <time>2012-05-04T10:04:10Z</time>
      </trkpt>
      <trkpt lat="44.21294" lon="5.7017">
        <ele>989.144</ele>
        <time>2012-05-04T10:04:19Z</time>
      </trkpt>
      <trkpt lat="44.21299" lon="5.7018">
        <ele>989.012</ele>
        <time>2012-05-04T10:04:25Z</time>
      </trkpt>
      <trkpt lat="44.213" lon="5.70182">
        <ele>989.329</ele>
        <time>2012-05-04T10:04:27Z</time>
      </trkpt>
      <trkpt lat="44.21298" lon="5.70204">
        <ele>989.51</ele>
        <time>2012-05-04T10:04:39Z</time>
      </trkpt>
      <trkpt lat="44.21296" lon="5.70215">
        <ele>989.877</ele>
        <time>2012-05-04T10:04:47Z</time>
      </trkpt>
      <trkpt lat="44.21295" lon="5.70232">
        <ele>990.411</ele>
        <time>2012-05-04T10:04:59Z</time>
      </trkpt>
      <trkpt lat="44.21303" lon="5.70238">
        <ele>991.6</ele>
        <time>2012-05-04T10:05:11Z</time>
      </trkpt>
      <trkpt lat="44.21305" lon="5.7024">
        <ele>991.94</ele>
        <time>2012-05-04T10:05:13Z</time>
      </trkpt>
      <trkpt lat="44.21309" lon="5.70245">
        <ele>993.067</ele>
        <time>2012-05-04T10:05:21Z</time>
      </trkpt>
      <trkpt lat="44.21313" lon="5.70249">
        <ele>994.192</ele>
        <time>2012-05-04T10:05:27Z</time>
      </trkpt>
      <trkpt lat="44.21318" lon="5.70254">
        <ele>995.084</ele>
        <time>2012-05-04T10:05:35Z</time>
      </trkpt>
      <trkpt lat="44.21324" lon="5.70259">
        <ele>996.517</ele>
        <time>2012-05-04T10:05:45Z</time>
      </trkpt>
      <trkpt lat="44.2133" lon="5.70262">
        <ele>997.836</ele>
        <time>2012-05-04T10:05:56Z</time>
      </trkpt>
      <trkpt lat="44.21331" lon="5.70262">
        <ele>998.04</ele>
        <time>2012-05-04T10:05:57Z</time>
      </trkpt>
      <trkpt lat="44.21337" lon="5.70263">
        <ele>999.01</ele>
        <time>2012-05-04T10:06:07Z</time>
      </trkpt>
      <trkpt lat="44.21339" lon="5.70263">
        <ele>999.401</ele>
        <time>2012-05-04T10:06:09Z</time>
      </trkpt>
      <trkpt lat="44.2135" lon="5.70261">
        <ele>1000.636</ele>
        <time>2012-05-04T10:06:21Z</time>
      </trkpt>
      <trkpt lat="44.21351" lon="5.70262">
        <ele>1000.524</ele>
        <time>2012-05-04T10:06:23Z</time>
      </trkpt>
      <trkpt lat="44.21362" lon="5.70265">
        <ele>1002.249</ele>
        <time>2012-05-04T10:06:36Z</time>
      </trkpt>
      <trkpt lat="44.21368" lon="5.70266">
        <ele>1003.138</ele>
        <time>2012-05-04T10:06:43Z</time>
      </trkpt>
      <trkpt lat="44.21376" lon="5.70267">
        <ele>1003.806</ele>
        <time>2012-05-04T10:06:52Z</time>
      </trkpt>
      <trkpt lat="44.21387" lon="5.70269">
        <ele>1004.966</ele>
        <time>2012-05-04T10:07:00Z</time>
      </trkpt>
      <trkpt lat="44.21389" lon="5.7027">
        <ele>1004.936</ele>
        <time>2012-05-04T10:07:02Z</time>
      </trkpt>
      <trkpt lat="44.214" lon="5.70276">
        <ele>1005.152</ele>
        <time>2012-05-04T10:07:13Z</time>
      </trkpt>
      <trkpt lat="44.21402" lon="5.70276">
        <ele>1005.722</ele>
        <time>2012-05-04T10:07:15Z</time>
      </trkpt>
      <trkpt lat="44.21412" lon="5.70281">
        <ele>1006.758</ele>
        <time>2012-05-04T10:07:25Z</time>
      </trkpt>
      <trkpt lat="44.21414" lon="5.70281">
        <ele>1007.007</ele>
        <time>2012-05-04T10:07:27Z</time>
      </trkpt>
      <trkpt lat="44.21421" lon="5.70289">
        <ele>1008.971</ele>
        <time>2012-05-04T10:07:39Z</time>
      </trkpt>
      <trkpt lat="44.21424" lon="5.70292">
        <ele>1008.991</ele>
        <time>2012-05-04T10:07:43Z</time>
      </trkpt>
      <trkpt lat="44.21433" lon="5.703">
        <ele>1009.898</ele>
        <time>2012-05-04T10:07:51Z</time>
      </trkpt>
      <trkpt lat="44.21441" lon="5.7031">
        <ele>1010.723</ele>
        <time>2012-05-04T10:08:03Z</time>
      </trkpt>
      <trkpt lat="44.21441" lon="5.70312">
        <ele>1010.768</ele>
        <time>2012-05-04T10:08:04Z</time>
      </trkpt>
      <trkpt lat="44.21445" lon="5.70316">
        <ele>1011.065</ele>
        <time>2012-05-04T10:08:07Z</time>
      </trkpt>
      <trkpt lat="44.21451" lon="5.70324">
        <ele>1011.791</ele>
        <time>2012-05-04T10:08:15Z</time>
      </trkpt>
      <trkpt lat="44.21455" lon="5.70331">
        <ele>1012.855</ele>
        <time>2012-05-04T10:08:22Z</time>
      </trkpt>
      <trkpt lat="44.21461" lon="5.70336">
        <ele>1013.781</ele>
        <time>2012-05-04T10:08:31Z</time>
      </trkpt>
      <trkpt lat="44.21462" lon="5.70337">
        <ele>1014.483</ele>
        <time>2012-05-04T10:08:32Z</time>
      </trkpt>
      <trkpt lat="44.21463" lon="5.7034">
        <ele>1014.341</ele>
        <time>2012-05-04T10:08:34Z</time>
      </trkpt>
      <trkpt lat="44.21464" lon="5.70345">
        <ele>1014.899</ele>
        <time>2012-05-04T10:08:38Z</time>
      </trkpt>
      <trkpt lat="44.21467" lon="5.70349">
        <ele>1015.195</ele>
        <time>2012-05-04T10:08:41Z</time>
      </trkpt>
      <trkpt lat="44.21472" lon="5.70358">
        <ele>1016.232</ele>
        <time>2012-05-04T10:08:51Z</time>
      </trkpt>
      <trkpt lat="44.21477" lon="5.70366">
        <ele>1017.27</ele>
        <time>2012-05-04T10:09:00Z</time>
      </trkpt>
      <trkpt lat="44.2148" lon="5.70381">
        <ele>1018.049</ele>
        <time>2012-05-04T10:09:11Z</time>
      </trkpt>
      <trkpt lat="44.21481" lon="5.70383">
        <ele>1018.425</ele>
        <time>2012-05-04T10:09:13Z</time>
      </trkpt>
      <trkpt lat="44.21483" lon="5.70385">
        <ele>1018.717</ele>
        <time>2012-05-04T10:09:15Z</time>
      </trkpt>
      <trkpt lat="44.21485" lon="5.70386">
        <ele>1018.895</ele>
        <time>2012-05-04T10:09:17Z</time>
      </trkpt>
      <trkpt lat="44.21487" lon="5.70394">
        <ele>1019.229</ele>
        <time>2012-05-04T10:09:24Z</time>
      </trkpt>
      <trkpt lat="44.21491" lon="5.70406">
        <ele>1019.525</ele>
        <time>2012-05-04T10:09:34Z</time>
      </trkpt>
      <trkpt lat="44.21502" lon="5.70419">
        <ele>1020.265</ele>
        <time>2012-05-04T10:09:46Z</time>
      </trkpt>
      <trkpt lat="44.21507" lon="5.70437">
        <ele>1021.617</ele>
        <time>2012-05-04T10:09:59Z</time>
      </trkpt>
      <trkpt lat="44.21514" lon="5.70444">
        <ele>1022.727</ele>
        <time>2012-05-04T10:10:07Z</time>
      </trkpt>
      <trkpt lat="44.21516" lon="5.70455">
        <ele>1024.024</ele>
        <time>2012-05-04T10:10:18Z</time>
      </trkpt>
      <trkpt lat="44.21518" lon="5.70466">
        <ele>1025.338</ele>
        <time>2012-05-04T10:10:29Z</time>
      </trkpt>
      <trkpt lat="44.21522" lon="5.70473">
        <ele>1026.841</ele>
        <time>2012-05-04T10:10:39Z</time>
      </trkpt>
      <trkpt lat="44.21529" lon="5.70483">
        <ele>1028.489</ele>
        <time>2012-05-04T10:10:51Z</time>
      </trkpt>
      <trkpt lat="44.21533" lon="5.70496">
        <ele>1029.563</ele>
        <time>2012-05-04T10:11:00Z</time>
      </trkpt>
      <trkpt lat="44.21534" lon="5.70511">
        <ele>1031.48</ele>
        <time>2012-05-04T10:11:13Z</time>
      </trkpt>
      <trkpt lat="44.21542" lon="5.70522">
        <ele>1033.586</ele>
        <time>2012-05-04T10:11:25Z</time>
      </trkpt>
      <trkpt lat="44.21545" lon="5.70523">
        <ele>1033.781</ele>
        <time>2012-05-04T10:11:28Z</time>
      </trkpt>
      <trkpt lat="44.2155" lon="5.70525">
        <ele>1033.823</ele>
        <time>2012-05-04T10:11:31Z</time>
      </trkpt>
      <trkpt lat="44.21553" lon="5.7053">
        <ele>1035.29</ele>
        <time>2012-05-04T10:11:40Z</time>
      </trkpt>
      <trkpt lat="44.21559" lon="5.70545">
        <ele>1036.765</ele>
        <time>2012-05-04T10:11:55Z</time>
      </trkpt>
      <trkpt lat="44.21554" lon="5.70559">
        <ele>1037.166</ele>
        <time>2012-05-04T10:12:04Z</time>
      </trkpt>
      <trkpt lat="44.21552" lon="5.70572">
        <ele>1036.99</ele>
        <time>2012-05-04T10:12:14Z</time>
      </trkpt>
      <trkpt lat="44.21548" lon="5.70584">
        <ele>1037.017</ele>
        <time>2012-05-04T10:12:20Z</time>
      </trkpt>
      <trkpt lat="44.21548" lon="5.70589">
        <ele>1037.342</ele>
        <time>2012-05-04T10:12:23Z</time>
      </trkpt>
      <trkpt lat="44.2155" lon="5.70607">
        <ele>1038.428</ele>
        <time>2012-05-04T10:12:35Z</time>
      </trkpt>
      <trkpt lat="44.21551" lon="5.70619">
        <ele>1038.947</ele>
        <time>2012-05-04T10:12:46Z</time>
      </trkpt>
      <trkpt lat="44.21555" lon="5.70625">
        <ele>1039.501</ele>
        <time>2012-05-04T10:12:51Z</time>
      </trkpt>
      <trkpt lat="44.21558" lon="5.70629">
        <ele>1040.39</ele>
        <time>2012-05-04T10:12:55Z</time>
      </trkpt>
      <trkpt lat="44.21562" lon="5.70641">
        <ele>1040.92</ele>
        <time>2012-05-04T10:13:05Z</time>
      </trkpt>
      <trkpt lat="44.21562" lon="5.70642">
        <ele>1040.76</ele>
        <time>2012-05-04T10:13:17Z</time>
      </trkpt>
      <trkpt lat="44.21561" lon="5.70655">
        <ele>1041.436</ele>
        <time>2012-05-04T10:13:35Z</time>
      </trkpt>
      <trkpt lat="44.21566" lon="5.70662">
        <ele>1042.607</ele>
        <time>2012-05-04T10:13:42Z</time>
      </trkpt>
      <trkpt lat="44.21571" lon="5.70672">
        <ele>1044.464</ele>
        <time>2012-05-04T10:13:54Z</time>
      </trkpt>
      <trkpt lat="44.21581" lon="5.70683">
        <ele>1047.378</ele>
        <time>2012-05-04T10:14:08Z</time>
      </trkpt>
      <trkpt lat="44.21584" lon="5.70691">
        <ele>1047.755</ele>
        <time>2012-05-04T10:14:17Z</time>
      </trkpt>
      <trkpt lat="44.21584" lon="5.70692">
        <ele>1047.755</ele>
        <time>2012-05-04T10:14:18Z</time>
      </trkpt>
      <trkpt lat="44.21587" lon="5.70704">
        <ele>1049.238</ele>
        <time>2012-05-04T10:14:29Z</time>
      </trkpt>
      <trkpt lat="44.21592" lon="5.70713">
        <ele>1051.026</ele>
        <time>2012-05-04T10:14:42Z</time>
      </trkpt>
      <trkpt lat="44.21594" lon="5.70717">
        <ele>1051.276</ele>
        <time>2012-05-04T10:14:47Z</time>
      </trkpt>
      <trkpt lat="44.21601" lon="5.70732">
        <ele>1053.825</ele>
        <time>2012-05-04T10:15:01Z</time>
      </trkpt>
      <trkpt lat="44.21605" lon="5.70744">
        <ele>1055.263</ele>
        <time>2012-05-04T10:15:14Z</time>
      </trkpt>
      <trkpt lat="44.21605" lon="5.70748">
        <ele>1055.535</ele>
        <time>2012-05-04T10:15:16Z</time>
      </trkpt>
      <trkpt lat="44.21605" lon="5.70762">
        <ele>1057.017</ele>
        <time>2012-05-04T10:15:26Z</time>
      </trkpt>
      <trkpt lat="44.21602" lon="5.70773">
        <ele>1057.963</ele>
        <time>2012-05-04T10:15:39Z</time>
      </trkpt>
      <trkpt lat="44.216" lon="5.70784">
        <ele>1059.028</ele>
        <time>2012-05-04T10:15:49Z</time>
      </trkpt>
      <trkpt lat="44.21596" lon="5.708">
        <ele>1060.944</ele>
        <time>2012-05-04T10:16:02Z</time>
      </trkpt>
      <trkpt lat="44.21599" lon="5.70811">
        <ele>1062.326</ele>
        <time>2012-05-04T10:16:14Z</time>
      </trkpt>
      <trkpt lat="44.216" lon="5.70813">
        <ele>1062.219</ele>
        <time>2012-05-04T10:16:29Z</time>
      </trkpt>
      <trkpt lat="44.21599" lon="5.70823">
        <ele>1063.734</ele>
        <time>2012-05-04T10:16:44Z</time>
      </trkpt>
      <trkpt lat="44.21601" lon="5.70829">
        <ele>1064.541</ele>
        <time>2012-05-04T10:16:54Z</time>
      </trkpt>
      <trkpt lat="44.21599" lon="5.70844">
        <ele>1065.94</ele>
        <time>2012-05-04T10:17:05Z</time>
      </trkpt>
      <trkpt lat="44.21599" lon="5.70855">
        <ele>1066.796</ele>
        <time>2012-05-04T10:17:14Z</time>
      </trkpt>
      <trkpt lat="44.21592" lon="5.70867">
        <ele>1067.587</ele>
        <time>2012-05-04T10:17:23Z</time>
      </trkpt>
      <trkpt lat="44.21592" lon="5.70877">
        <ele>1067.278</ele>
        <time>2012-05-04T10:17:33Z</time>
      </trkpt>
      <trkpt lat="44.21591" lon="5.70888">
        <ele>1068.529</ele>
        <time>2012-05-04T10:17:41Z</time>
      </trkpt>
      <trkpt lat="44.21588" lon="5.70905">
        <ele>1069.48</ele>
        <time>2012-05-04T10:17:53Z</time>
      </trkpt>
      <trkpt lat="44.21584" lon="5.70917">
        <ele>1071.818</ele>
        <time>2012-05-04T10:18:08Z</time>
      </trkpt>
      <trkpt lat="44.21573" lon="5.70928">
        <ele>1072.825</ele>
        <time>2012-05-04T10:18:18Z</time>
      </trkpt>
      <trkpt lat="44.21567" lon="5.70936">
        <ele>1073.772</ele>
        <time>2012-05-04T10:18:28Z</time>
      </trkpt>
      <trkpt lat="44.21567" lon="5.7094">
        <ele>1074.084</ele>
        <time>2012-05-04T10:18:37Z</time>
      </trkpt>
      <trkpt lat="44.21562" lon="5.70947">
        <ele>1074.849</ele>
        <time>2012-05-04T10:18:49Z</time>
      </trkpt>
      <trkpt lat="44.2156" lon="5.70952">
        <ele>1075.21</ele>
        <time>2012-05-04T10:18:53Z</time>
      </trkpt>
      <trkpt lat="44.21552" lon="5.70965">
        <ele>1076.282</ele>
        <time>2012-05-04T10:19:02Z</time>
      </trkpt>
      <trkpt lat="44.21546" lon="5.70976">
        <ele>1077.052</ele>
        <time>2012-05-04T10:19:12Z</time>
      </trkpt>
      <trkpt lat="44.21539" lon="5.70983">
        <ele>1078.305</ele>
        <time>2012-05-04T10:19:22Z</time>
      </trkpt>
      <trkpt lat="44.21536" lon="5.7099">
        <ele>1079.375</ele>
        <time>2012-05-04T10:19:37Z</time>
      </trkpt>
      <trkpt lat="44.21526" lon="5.70999">
        <ele>1081.464</ele>
        <time>2012-05-04T10:19:49Z</time>
      </trkpt>
      <trkpt lat="44.21523" lon="5.71003">
        <ele>1081.842</ele>
        <time>2012-05-04T10:19:54Z</time>
      </trkpt>
      <trkpt lat="44.2152" lon="5.71003">
        <ele>1082.328</ele>
        <time>2012-05-04T10:19:57Z</time>
      </trkpt>
      <trkpt lat="44.21512" lon="5.71013">
        <ele>1084.246</ele>
        <time>2012-05-04T10:20:09Z</time>
      </trkpt>
      <trkpt lat="44.21506" lon="5.71015">
        <ele>1084.783</ele>
        <time>2012-05-04T10:20:18Z</time>
      </trkpt>
      <trkpt lat="44.21499" lon="5.71017">
        <ele>1085.665</ele>
        <time>2012-05-04T10:20:29Z</time>
      </trkpt>
      <trkpt lat="44.21495" lon="5.71019">
        <ele>1086.308</ele>
        <time>2012-05-04T10:20:32Z</time>
      </trkpt>
      <trkpt lat="44.21481" lon="5.71023">
        <ele>1087.24</ele>
        <time>2012-05-04T10:20:43Z</time>
      </trkpt>
      <trkpt lat="44.21478" lon="5.71023">
        <ele>1087.871</ele>
        <time>2012-05-04T10:20:49Z</time>
      </trkpt>
      <trkpt lat="44.21469" lon="5.71023">
        <ele>1088.84</ele>
        <time>2012-05-04T10:20:57Z</time>
      </trkpt>
      <trkpt lat="44.21456" lon="5.71024">
        <ele>1089.652</ele>
        <time>2012-05-04T10:21:08Z</time>
      </trkpt>
      <trkpt lat="44.21449" lon="5.71025">
        <ele>1091.295</ele>
        <time>2012-05-04T10:21:16Z</time>
      </trkpt>
      <trkpt lat="44.21444" lon="5.71025">
        <ele>1092.244</ele>
        <time>2012-05-04T10:21:24Z</time>
      </trkpt>
      <trkpt lat="44.21432" lon="5.71019">
        <ele>1095.034</ele>
        <time>2012-05-04T10:21:39Z</time>
      </trkpt>
      <trkpt lat="44.21426" lon="5.71017">
        <ele>1095.925</ele>
        <time>2012-05-04T10:21:48Z</time>
      </trkpt>
      <trkpt lat="44.21416" lon="5.71018">
        <ele>1096.802</ele>
        <time>2012-05-04T10:21:58Z</time>
      </trkpt>
      <trkpt lat="44.21409" lon="5.71015">
        <ele>1097.25</ele>
        <time>2012-05-04T10:22:06Z</time>
      </trkpt>
      <trkpt lat="44.214" lon="5.71012">
        <ele>1099.441</ele>
        <time>2012-05-04T10:22:17Z</time>
      </trkpt>
      <trkpt lat="44.21393" lon="5.7101">
        <ele>1101.237</ele>
        <time>2012-05-04T10:22:28Z</time>
      </trkpt>
      <trkpt lat="44.21386" lon="5.71008">
        <ele>1102.447</ele>
        <time>2012-05-04T10:22:35Z</time>
      </trkpt>
      <trkpt lat="44.2138" lon="5.71004">
        <ele>1104.281</ele>
        <time>2012-05-04T10:22:44Z</time>
      </trkpt>
      <trkpt lat="44.21376" lon="5.71005">
        <ele>1104.157</ele>
        <time>2012-05-04T10:23:01Z</time>
      </trkpt>
      <trkpt lat="44.21373" lon="5.71006">
        <ele>1104.135</ele>
        <time>2012-05-04T10:23:05Z</time>
      </trkpt>
      <trkpt lat="44.21365" lon="5.71003">
        <ele>1104.585</ele>
        <time>2012-05-04T10:23:16Z</time>
      </trkpt>
      <trkpt lat="44.21352" lon="5.71011">
        <ele>1106.03</ele>
        <time>2012-05-04T10:23:28Z</time>
      </trkpt>
      <trkpt lat="44.21344" lon="5.71013">
        <ele>1106.248</ele>
        <time>2012-05-04T10:23:37Z</time>
      </trkpt>
      <trkpt lat="44.21333" lon="5.71018">
        <ele>1107.371</ele>
        <time>2012-05-04T10:23:46Z</time>
      </trkpt>
      <trkpt lat="44.2133" lon="5.7102">
        <ele>1107.866</ele>
        <time>2012-05-04T10:23:54Z</time>
      </trkpt>
      <trkpt lat="44.21322" lon="5.71027">
        <ele>1109.457</ele>
        <time>2012-05-04T10:24:06Z</time>
      </trkpt>
      <trkpt lat="44.21322" lon="5.71028">
        <ele>1109.787</ele>
        <time>2012-05-04T10:24:07Z</time>
      </trkpt>
      <trkpt lat="44.21315" lon="5.71039">
        <ele>1110.721</ele>
        <time>2012-05-04T10:24:16Z</time>
      </trkpt>
      <trkpt lat="44.21307" lon="5.71049">
        <ele>1111.929</ele>
        <time>2012-05-04T10:24:25Z</time>
      </trkpt>
      <trkpt lat="44.21303" lon="5.71055">
        <ele>1112.455</ele>
        <time>2012-05-04T10:24:31Z</time>
      </trkpt>
      <trkpt lat="44.21299" lon="5.71058">
        <ele>1112.747</ele>
        <time>2012-05-04T10:24:34Z</time>
      </trkpt>
      <trkpt lat="44.21291" lon="5.71067">
        <ele>1113.157</ele>
        <time>2012-05-04T10:24:44Z</time>
      </trkpt>
      <trkpt lat="44.21291" lon="5.71068">
        <ele>1113.565</ele>
        <time>2012-05-04T10:24:46Z</time>
      </trkpt>
      <trkpt lat="44.21288" lon="5.71069">
        <ele>1113.77</ele>
        <time>2012-05-04T10:24:48Z</time>
      </trkpt>
      <trkpt lat="44.21286" lon="5.71072">
        <ele>1114.212</ele>
        <time>2012-05-04T10:24:52Z</time>
      </trkpt>
      <trkpt lat="44.21275" lon="5.71075">
        <ele>1115.194</ele>
        <time>2012-05-04T10:25:01Z</time>
      </trkpt>
      <trkpt lat="44.21272" lon="5.71078">
        <ele>1115.842</ele>
        <time>2012-05-04T10:25:08Z</time>
      </trkpt>
      <trkpt lat="44.21264" lon="5.71083">
        <ele>1116.576</ele>
        <time>2012-05-04T10:25:17Z</time>
      </trkpt>
      <trkpt lat="44.21262" lon="5.71084">
        <ele>1117.082</ele>
        <time>2012-05-04T10:25:19Z</time>
      </trkpt>
      <trkpt lat="44.21251" lon="5.71087">
        <ele>1117.61</ele>
        <time>2012-05-04T10:25:29Z</time>
      </trkpt>
      <trkpt lat="44.2124" lon="5.71091">
        <ele>1118.662</ele>
        <time>2012-05-04T10:25:38Z</time>
      </trkpt>
      <trkpt lat="44.21235" lon="5.71094">
        <ele>1119.522</ele>
        <time>2012-05-04T10:25:50Z</time>
      </trkpt>
      <trkpt lat="44.21227" lon="5.71101">
        <ele>1121.563</ele>
        <time>2012-05-04T10:26:04Z</time>
      </trkpt>
      <trkpt lat="44.21222" lon="5.71102">
        <ele>1123.764</ele>
        <time>2012-05-04T10:26:16Z</time>
      </trkpt>
      <trkpt lat="44.21215" lon="5.71106">
        <ele>1125.283</ele>
        <time>2012-05-04T10:26:25Z</time>
      </trkpt>
      <trkpt lat="44.21214" lon="5.71108">
        <ele>1126.174</ele>
        <time>2012-05-04T10:26:31Z</time>
      </trkpt>
      <trkpt lat="44.21206" lon="5.71118">
        <ele>1127.604</ele>
        <time>2012-05-04T10:26:42Z</time>
      </trkpt>
      <trkpt lat="44.21198" lon="5.71125">
        <ele>1128.593</ele>
        <time>2012-05-04T10:26:53Z</time>
      </trkpt>
      <trkpt lat="44.21191" lon="5.71129">
        <ele>1129.257</ele>
        <time>2012-05-04T10:27:05Z</time>
      </trkpt>
      <trkpt lat="44.21185" lon="5.71133">
        <ele>1130.864</ele>
        <time>2012-05-04T10:27:15Z</time>
      </trkpt>
      <trkpt lat="44.2118" lon="5.71136">
        <ele>1131.322</ele>
        <time>2012-05-04T10:27:23Z</time>
      </trkpt>
      <trkpt lat="44.21173" lon="5.71143">
        <ele>1133.344</ele>
        <time>2012-05-04T10:27:34Z</time>
      </trkpt>
      <trkpt lat="44.21167" lon="5.71151">
        <ele>1134.129</ele>
        <time>2012-05-04T10:27:45Z</time>
      </trkpt>
      <trkpt lat="44.21165" lon="5.71153">
        <ele>1135.223</ele>
        <time>2012-05-04T10:27:51Z</time>
      </trkpt>
      <trkpt lat="44.21152" lon="5.71158">
        <ele>1136.778</ele>
        <time>2012-05-04T10:28:01Z</time>
      </trkpt>
      <trkpt lat="44.21146" lon="5.7117">
        <ele>1137.591</ele>
        <time>2012-05-04T10:28:11Z</time>
      </trkpt>
      <trkpt lat="44.21144" lon="5.71171">
        <ele>1138.827</ele>
        <time>2012-05-04T10:28:19Z</time>
      </trkpt>
      <trkpt lat="44.21139" lon="5.71183">
        <ele>1139.926</ele>
        <time>2012-05-04T10:28:28Z</time>
      </trkpt>
      <trkpt lat="44.21133" lon="5.71198">
        <ele>1142.396</ele>
        <time>2012-05-04T10:28:41Z</time>
      </trkpt>
      <trkpt lat="44.21124" lon="5.71209">
        <ele>1143.563</ele>
        <time>2012-05-04T10:28:52Z</time>
      </trkpt>
      <trkpt lat="44.21124" lon="5.71211">
        <ele>1143.931</ele>
        <time>2012-05-04T10:28:54Z</time>
      </trkpt>
      <trkpt lat="44.21118" lon="5.71223">
        <ele>1145.396</ele>
        <time>2012-05-04T10:29:07Z</time>
      </trkpt>
      <trkpt lat="44.21111" lon="5.71229">
        <ele>1147.012</ele>
        <time>2012-05-04T10:29:17Z</time>
      </trkpt>
      <trkpt lat="44.21105" lon="5.71238">
        <ele>1148.332</ele>
        <time>2012-05-04T10:29:28Z</time>
      </trkpt>
      <trkpt lat="44.21099" lon="5.71242">
        <ele>1150.042</ele>
        <time>2012-05-04T10:29:36Z</time>
      </trkpt>
      <trkpt lat="44.21093" lon="5.71249">
        <ele>1151.992</ele>
        <time>2012-05-04T10:29:47Z</time>
      </trkpt>
      <trkpt lat="44.21086" lon="5.71252">
        <ele>1153.348</ele>
        <time>2012-05-04T10:29:56Z</time>
      </trkpt>
      <trkpt lat="44.21081" lon="5.71244">
        <ele>1154.452</ele>
        <time>2012-05-04T10:30:06Z</time>
      </trkpt>
      <trkpt lat="44.21076" lon="5.71236">
        <ele>1157.154</ele>
        <time>2012-05-04T10:30:16Z</time>
      </trkpt>
      <trkpt lat="44.21075" lon="5.71225">
        <ele>1158.002</ele>
        <time>2012-05-04T10:30:24Z</time>
      </trkpt>
      <trkpt lat="44.21071" lon="5.71208">
        <ele>1160.44</ele>
        <time>2012-05-04T10:30:38Z</time>
      </trkpt>
      <trkpt lat="44.21071" lon="5.71204">
        <ele>1161.244</ele>
        <time>2012-05-04T10:30:41Z</time>
      </trkpt>
      <trkpt lat="44.21072" lon="5.71189">
        <ele>1163.66</ele>
        <time>2012-05-04T10:30:55Z</time>
      </trkpt>
      <trkpt lat="44.21072" lon="5.71178">
        <ele>1165.799</ele>
        <time>2012-05-04T10:31:07Z</time>
      </trkpt>
      <trkpt lat="44.21066" lon="5.71167">
        <ele>1167.48</ele>
        <time>2012-05-04T10:31:20Z</time>
      </trkpt>
      <trkpt lat="44.21062" lon="5.71157">
        <ele>1169.541</ele>
        <time>2012-05-04T10:31:33Z</time>
      </trkpt>
      <trkpt lat="44.21056" lon="5.71149">
        <ele>1171.132</ele>
        <time>2012-05-04T10:31:43Z</time>
      </trkpt>
      <trkpt lat="44.21054" lon="5.71148">
        <ele>1172.702</ele>
        <time>2012-05-04T10:31:57Z</time>
      </trkpt>
      <trkpt lat="44.21055" lon="5.71149">
        <ele>1172.153</ele>
        <time>2012-05-04T10:32:22Z</time>
      </trkpt>
      <trkpt lat="44.21054" lon="5.71149">
        <ele>1172.827</ele>
        <time>2012-05-04T10:32:43Z</time>
      </trkpt>
      <trkpt lat="44.21049" lon="5.7115">
        <ele>1173.448</ele>
        <time>2012-05-04T10:32:57Z</time>
      </trkpt>
      <trkpt lat="44.21044" lon="5.7116">
        <ele>1175.982</ele>
        <time>2012-05-04T10:33:10Z</time>
      </trkpt>
      <trkpt lat="44.2104" lon="5.71171">
        <ele>1178.976</ele>
        <time>2012-05-04T10:33:24Z</time>
      </trkpt>
      <trkpt lat="44.21034" lon="5.71185">
        <ele>1181.455</ele>
        <time>2012-05-04T10:33:37Z</time>
      </trkpt>
      <trkpt lat="44.21034" lon="5.71185">
        <ele>1181.459</ele>
        <time>2012-05-04T10:33:38Z</time>
      </trkpt>
      <trkpt lat="44.21032" lon="5.71196">
        <ele>1183.014</ele>
        <time>2012-05-04T10:33:48Z</time>
      </trkpt>
      <trkpt lat="44.21032" lon="5.712">
        <ele>1183.643</ele>
        <time>2012-05-04T10:34:02Z</time>
      </trkpt>
      <trkpt lat="44.2103" lon="5.71199">
        <ele>1183.207</ele>
        <time>2012-05-04T10:34:36Z</time>
      </trkpt>
      <trkpt lat="44.21032" lon="5.71199">
        <ele>1183.65</ele>
        <time>2012-05-04T10:35:05Z</time>
      </trkpt>
      <trkpt lat="44.2103" lon="5.71197">
        <ele>1184.201</ele>
        <time>2012-05-04T10:35:39Z</time>
      </trkpt>
      <trkpt lat="44.21033" lon="5.712">
        <ele>1184.462</ele>
        <time>2012-05-04T10:36:18Z</time>
      </trkpt>
      <trkpt lat="44.21033" lon="5.71201">
        <ele>1184.709</ele>
        <time>2012-05-04T10:36:41Z</time>
      </trkpt>
      <trkpt lat="44.21033" lon="5.71199">
        <ele>1185.167</ele>
        <time>2012-05-04T10:37:03Z</time>
      </trkpt>
      <trkpt lat="44.21033" lon="5.71205">
        <ele>1186.477</ele>
        <time>2012-05-04T10:38:17Z</time>
      </trkpt>
      <trkpt lat="44.21025" lon="5.71221">
        <ele>1188.928</ele>
        <time>2012-05-04T10:38:34Z</time>
      </trkpt>
      <trkpt lat="44.21023" lon="5.71231">
        <ele>1190.034</ele>
        <time>2012-05-04T10:38:43Z</time>
      </trkpt>
      <trkpt lat="44.2102" lon="5.71237">
        <ele>1191.379</ele>
        <time>2012-05-04T10:38:53Z</time>
      </trkpt>
      <trkpt lat="44.21018" lon="5.7124">
        <ele>1191.975</ele>
        <time>2012-05-04T10:38:58Z</time>
      </trkpt>
      <trkpt lat="44.21012" lon="5.71249">
        <ele>1193.067</ele>
        <time>2012-05-04T10:39:06Z</time>
      </trkpt>
      <trkpt lat="44.21006" lon="5.71263">
        <ele>1194.227</ele>
        <time>2012-05-04T10:39:18Z</time>
      </trkpt>
      <trkpt lat="44.21001" lon="5.71276">
        <ele>1195.199</ele>
        <time>2012-05-04T10:39:27Z</time>
      </trkpt>
      <trkpt lat="44.20997" lon="5.7129">
        <ele>1197.168</ele>
        <time>2012-05-04T10:39:38Z</time>
      </trkpt>
      <trkpt lat="44.20996" lon="5.71293">
        <ele>1197.38</ele>
        <time>2012-05-04T10:39:40Z</time>
      </trkpt>
      <trkpt lat="44.20991" lon="5.71305">
        <ele>1198.947</ele>
        <time>2012-05-04T10:39:51Z</time>
      </trkpt>
      <trkpt lat="44.20987" lon="5.71317">
        <ele>1200.76</ele>
        <time>2012-05-04T10:40:02Z</time>
      </trkpt>
      <trkpt lat="44.20986" lon="5.71322">
        <ele>1201.934</ele>
        <time>2012-05-04T10:40:08Z</time>
      </trkpt>
      <trkpt lat="44.20984" lon="5.71327">
        <ele>1202.05</ele>
        <time>2012-05-04T10:40:12Z</time>
      </trkpt>
      <trkpt lat="44.2098" lon="5.71337">
        <ele>1203.503</ele>
        <time>2012-05-04T10:40:19Z</time>
      </trkpt>
      <trkpt lat="44.20976" lon="5.71351">
        <ele>1205</ele>
        <time>2012-05-04T10:40:30Z</time>
      </trkpt>
      <trkpt lat="44.20974" lon="5.71364">
        <ele>1206.487</ele>
        <time>2012-05-04T10:40:41Z</time>
      </trkpt>
      <trkpt lat="44.20972" lon="5.71376">
        <ele>1208.466</ele>
        <time>2012-05-04T10:40:51Z</time>
      </trkpt>
      <trkpt lat="44.20967" lon="5.71387">
        <ele>1209.998</ele>
        <time>2012-05-04T10:41:00Z</time>
      </trkpt>
      <trkpt lat="44.20963" lon="5.71403">
        <ele>1211.925</ele>
        <time>2012-05-04T10:41:11Z</time>
      </trkpt>
      <trkpt lat="44.20963" lon="5.71415">
        <ele>1214.052</ele>
        <time>2012-05-04T10:41:21Z</time>
      </trkpt>
      <trkpt lat="44.20963" lon="5.71423">
        <ele>1215.359</ele>
        <time>2012-05-04T10:41:31Z</time>
      </trkpt>
      <trkpt lat="44.20963" lon="5.71443">
        <ele>1218.004</ele>
        <time>2012-05-04T10:41:46Z</time>
      </trkpt>
      <trkpt lat="44.20958" lon="5.71464">
        <ele>1220.466</ele>
        <time>2012-05-04T10:42:02Z</time>
      </trkpt>
      <trkpt lat="44.20957" lon="5.71474">
        <ele>1222.599</ele>
        <time>2012-05-04T10:42:11Z</time>
      </trkpt>
      <trkpt lat="44.20956" lon="5.71483">
        <ele>1223.424</ele>
        <time>2012-05-04T10:42:19Z</time>
      </trkpt>
      <trkpt lat="44.20947" lon="5.71492">
        <ele>1224.594</ele>
        <time>2012-05-04T10:42:23Z</time>
      </trkpt>
      <trkpt lat="44.20942" lon="5.715">
        <ele>1226.472</ele>
        <time>2012-05-04T10:42:33Z</time>
      </trkpt>
      <trkpt lat="44.20941" lon="5.71504">
        <ele>1227.191</ele>
        <time>2012-05-04T10:42:41Z</time>
      </trkpt>
      <trkpt lat="44.20938" lon="5.71507">
        <ele>1227.453</ele>
        <time>2012-05-04T10:42:50Z</time>
      </trkpt>
      <trkpt lat="44.20934" lon="5.71517">
        <ele>1228.835</ele>
        <time>2012-05-04T10:43:08Z</time>
      </trkpt>
      <trkpt lat="44.20932" lon="5.71523">
        <ele>1229.833</ele>
        <time>2012-05-04T10:43:13Z</time>
      </trkpt>
      <trkpt lat="44.20925" lon="5.71536">
        <ele>1231.456</ele>
        <time>2012-05-04T10:43:24Z</time>
      </trkpt>
      <trkpt lat="44.20916" lon="5.71547">
        <ele>1232.716</ele>
        <time>2012-05-04T10:43:37Z</time>
      </trkpt>
      <trkpt lat="44.20908" lon="5.71553">
        <ele>1233.934</ele>
        <time>2012-05-04T10:43:47Z</time>
      </trkpt>
      <trkpt lat="44.20899" lon="5.71569">
        <ele>1235.917</ele>
        <time>2012-05-04T10:44:00Z</time>
      </trkpt>
      <trkpt lat="44.20892" lon="5.71576">
        <ele>1236.766</ele>
        <time>2012-05-04T10:44:24Z</time>
      </trkpt>
      <trkpt lat="44.20893" lon="5.71586">
        <ele>1238.343</ele>
        <time>2012-05-04T10:44:48Z</time>
      </trkpt>
      <trkpt lat="44.20887" lon="5.71587">
        <ele>1240.401</ele>
        <time>2012-05-04T10:44:56Z</time>
      </trkpt>
      <trkpt lat="44.20884" lon="5.71582">
        <ele>1240.826</ele>
        <time>2012-05-04T10:45:09Z</time>
      </trkpt>
      <trkpt lat="44.20886" lon="5.71579">
        <ele>1241.244</ele>
        <time>2012-05-04T10:45:22Z</time>
      </trkpt>
      <trkpt lat="44.2089" lon="5.71572">
        <ele>1242.483</ele>
        <time>2012-05-04T10:45:33Z</time>
      </trkpt>
      <trkpt lat="44.20885" lon="5.71564">
        <ele>1243.334</ele>
        <time>2012-05-04T10:45:45Z</time>
      </trkpt>
      <trkpt lat="44.20883" lon="5.7156">
        <ele>1243.575</ele>
        <time>2012-05-04T10:45:55Z</time>
      </trkpt>
      <trkpt lat="44.20879" lon="5.71553">
        <ele>1245.102</ele>
        <time>2012-05-04T10:46:08Z</time>
      </trkpt>
      <trkpt lat="44.20875" lon="5.7154">
        <ele>1245.888</ele>
        <time>2012-05-04T10:46:36Z</time>
      </trkpt>
      <trkpt lat="44.20872" lon="5.71531">
        <ele>1247.199</ele>
        <time>2012-05-04T10:47:00Z</time>
      </trkpt>
      <trkpt lat="44.20871" lon="5.7153">
        <ele>1247.688</ele>
        <time>2012-05-04T10:47:02Z</time>
      </trkpt>
      <trkpt lat="44.20869" lon="5.71527">
        <ele>1248.44</ele>
        <time>2012-05-04T10:47:18Z</time>
      </trkpt>
      <trkpt lat="44.20869" lon="5.71527">
        <ele>1248.41</ele>
        <time>2012-05-04T10:48:25Z</time>
      </trkpt>
      <trkpt lat="44.2087" lon="5.71536">
        <ele>1247.439</ele>
        <time>2012-05-04T10:49:05Z</time>
      </trkpt>
      <trkpt lat="44.20872" lon="5.71547">
        <ele>1245.681</ele>
        <time>2012-05-04T10:49:20Z</time>
      </trkpt>
      <trkpt lat="44.20869" lon="5.71552">
        <ele>1245.217</ele>
        <time>2012-05-04T10:49:28Z</time>
      </trkpt>
      <trkpt lat="44.20869" lon="5.71553">
        <ele>1245.516</ele>
        <time>2012-05-04T10:49:29Z</time>
      </trkpt>
      <trkpt lat="44.20859" lon="5.71573">
        <ele>1247.453</ele>
        <time>2012-05-04T10:49:53Z</time>
      </trkpt>
      <trkpt lat="44.20872" lon="5.71599">
        <ele>1249.663</ele>
        <time>2012-05-04T10:50:13Z</time>
      </trkpt>
      <trkpt lat="44.20876" lon="5.71619">
        <ele>1250.541</ele>
        <time>2012-05-04T10:50:26Z</time>
      </trkpt>
      <trkpt lat="44.2088" lon="5.71634">
        <ele>1251.64</ele>
        <time>2012-05-04T10:50:39Z</time>
      </trkpt>
      <trkpt lat="44.20877" lon="5.71644">
        <ele>1252.672</ele>
        <time>2012-05-04T10:50:48Z</time>
      </trkpt>
      <trkpt lat="44.2088" lon="5.71648">
        <ele>1252.149</ele>
        <time>2012-05-04T10:50:51Z</time>
      </trkpt>
      <trkpt lat="44.20888" lon="5.71652">
        <ele>1253.211</ele>
        <time>2012-05-04T10:50:56Z</time>
      </trkpt>
      <trkpt lat="44.20892" lon="5.71657">
        <ele>1253.526</ele>
        <time>2012-05-04T10:51:03Z</time>
      </trkpt>
      <trkpt lat="44.20909" lon="5.71664">
        <ele>1255.261</ele>
        <time>2012-05-04T10:51:12Z</time>
      </trkpt>
      <trkpt lat="44.20914" lon="5.71669">
        <ele>1256.605</ele>
        <time>2012-05-04T10:51:19Z</time>
      </trkpt>
      <trkpt lat="44.20916" lon="5.71678">
        <ele>1257.718</ele>
        <time>2012-05-04T10:51:29Z</time>
      </trkpt>
      <trkpt lat="44.20917" lon="5.71685">
        <ele>1258.326</ele>
        <time>2012-05-04T10:51:35Z</time>
      </trkpt>
      <trkpt lat="44.20915" lon="5.71702">
        <ele>1259.101</ele>
        <time>2012-05-04T10:51:47Z</time>
      </trkpt>
      <trkpt lat="44.20918" lon="5.71714">
        <ele>1259.573</ele>
        <time>2012-05-04T10:51:55Z</time>
      </trkpt>
      <trkpt lat="44.20918" lon="5.71716">
        <ele>1259.572</ele>
        <time>2012-05-04T10:51:56Z</time>
      </trkpt>
      <trkpt lat="44.20919" lon="5.71726">
        <ele>1259.966</ele>
        <time>2012-05-04T10:52:02Z</time>
      </trkpt>
      <trkpt lat="44.2092" lon="5.71743">
        <ele>1260.716</ele>
        <time>2012-05-04T10:52:15Z</time>
      </trkpt>
      <trkpt lat="44.20924" lon="5.71762">
        <ele>1262.37</ele>
        <time>2012-05-04T10:52:30Z</time>
      </trkpt>
      <trkpt lat="44.20927" lon="5.71774">
        <ele>1263.151</ele>
        <time>2012-05-04T10:52:41Z</time>
      </trkpt>
      <trkpt lat="44.20927" lon="5.71782">
        <ele>1263.847</ele>
        <time>2012-05-04T10:52:48Z</time>
      </trkpt>
      <trkpt lat="44.20926" lon="5.71789">
        <ele>1264.362</ele>
        <time>2012-05-04T10:52:53Z</time>
      </trkpt>
      <trkpt lat="44.20927" lon="5.71791">
        <ele>1264.946</ele>
        <time>2012-05-04T10:52:55Z</time>
      </trkpt>
      <trkpt lat="44.20925" lon="5.71803">
        <ele>1265.511</ele>
        <time>2012-05-04T10:53:05Z</time>
      </trkpt>
      <trkpt lat="44.20925" lon="5.71806">
        <ele>1266.023</ele>
        <time>2012-05-04T10:53:07Z</time>
      </trkpt>
      <trkpt lat="44.20925" lon="5.71822">
        <ele>1267.184</ele>
        <time>2012-05-04T10:53:19Z</time>
      </trkpt>
      <trkpt lat="44.20926" lon="5.71823">
        <ele>1267.783</ele>
        <time>2012-05-04T10:53:20Z</time>
      </trkpt>
      <trkpt lat="44.20924" lon="5.71836">
        <ele>1269.32</ele>
        <time>2012-05-04T10:53:30Z</time>
      </trkpt>
      <trkpt lat="44.20922" lon="5.71847">
        <ele>1270.728</ele>
        <time>2012-05-04T10:53:40Z</time>
      </trkpt>
      <trkpt lat="44.20919" lon="5.71858">
        <ele>1271.634</ele>
        <time>2012-05-04T10:53:48Z</time>
      </trkpt>
      <trkpt lat="44.20917" lon="5.71865">
        <ele>1273.17</ele>
        <time>2012-05-04T10:53:58Z</time>
      </trkpt>
      <trkpt lat="44.20911" lon="5.71878">
        <ele>1274.935</ele>
        <time>2012-05-04T10:54:11Z</time>
      </trkpt>
      <trkpt lat="44.20904" lon="5.7189">
        <ele>1276.37</ele>
        <time>2012-05-04T10:54:23Z</time>
      </trkpt>
      <trkpt lat="44.20901" lon="5.71893">
        <ele>1277.312</ele>
        <time>2012-05-04T10:54:28Z</time>
      </trkpt>
      <trkpt lat="44.2089" lon="5.71901">
        <ele>1278.86</ele>
        <time>2012-05-04T10:54:41Z</time>
      </trkpt>
      <trkpt lat="44.20886" lon="5.71908">
        <ele>1279.299</ele>
        <time>2012-05-04T10:54:49Z</time>
      </trkpt>
      <trkpt lat="44.2088" lon="5.7192">
        <ele>1280.883</ele>
        <time>2012-05-04T10:54:59Z</time>
      </trkpt>
      <trkpt lat="44.20874" lon="5.71932">
        <ele>1282.973</ele>
        <time>2012-05-04T10:55:11Z</time>
      </trkpt>
      <trkpt lat="44.20873" lon="5.71933">
        <ele>1282.967</ele>
        <time>2012-05-04T10:55:12Z</time>
      </trkpt>
      <trkpt lat="44.20868" lon="5.71952">
        <ele>1285.132</ele>
        <time>2012-05-04T10:55:28Z</time>
      </trkpt>
      <trkpt lat="44.20866" lon="5.71961">
        <ele>1285.377</ele>
        <time>2012-05-04T10:55:36Z</time>
      </trkpt>
      <trkpt lat="44.20861" lon="5.71979">
        <ele>1285.965</ele>
        <time>2012-05-04T10:55:47Z</time>
      </trkpt>
      <trkpt lat="44.20854" lon="5.71987">
        <ele>1286.419</ele>
        <time>2012-05-04T10:55:58Z</time>
      </trkpt>
      <trkpt lat="44.20851" lon="5.71992">
        <ele>1286.905</ele>
        <time>2012-05-04T10:56:07Z</time>
      </trkpt>
      <trkpt lat="44.20841" lon="5.71998">
        <ele>1287.628</ele>
        <time>2012-05-04T10:56:16Z</time>
      </trkpt>
      <trkpt lat="44.20832" lon="5.72007">
        <ele>1288.31</ele>
        <time>2012-05-04T10:56:28Z</time>
      </trkpt>
      <trkpt lat="44.20826" lon="5.72017">
        <ele>1289.721</ele>
        <time>2012-05-04T10:56:40Z</time>
      </trkpt>
      <trkpt lat="44.20817" lon="5.72025">
        <ele>1291.342</ele>
        <time>2012-05-04T10:56:53Z</time>
      </trkpt>
      <trkpt lat="44.2081" lon="5.72043">
        <ele>1291.788</ele>
        <time>2012-05-04T10:57:08Z</time>
      </trkpt>
      <trkpt lat="44.20804" lon="5.72049">
        <ele>1293.581</ele>
        <time>2012-05-04T10:57:20Z</time>
      </trkpt>
      <trkpt lat="44.20792" lon="5.72065">
        <ele>1296.345</ele>
        <time>2012-05-04T10:57:36Z</time>
      </trkpt>
      <trkpt lat="44.20793" lon="5.72076">
        <ele>1297.768</ele>
        <time>2012-05-04T10:57:46Z</time>
      </trkpt>
      <trkpt lat="44.20791" lon="5.72081">
        <ele>1297.849</ele>
        <time>2012-05-04T10:57:49Z</time>
      </trkpt>
      <trkpt lat="44.20787" lon="5.72085">
        <ele>1298.641</ele>
        <time>2012-05-04T10:57:55Z</time>
      </trkpt>
      <trkpt lat="44.20782" lon="5.721">
        <ele>1299.741</ele>
        <time>2012-05-04T10:58:08Z</time>
      </trkpt>
      <trkpt lat="44.20776" lon="5.72112">
        <ele>1302.303</ele>
        <time>2012-05-04T10:58:20Z</time>
      </trkpt>
      <trkpt lat="44.20775" lon="5.72123">
        <ele>1303.971</ele>
        <time>2012-05-04T10:58:32Z</time>
      </trkpt>
      <trkpt lat="44.20772" lon="5.72136">
        <ele>1305.872</ele>
        <time>2012-05-04T10:58:44Z</time>
      </trkpt>
      <trkpt lat="44.20762" lon="5.72148">
        <ele>1307.85</ele>
        <time>2012-05-04T10:58:56Z</time>
      </trkpt>
      <trkpt lat="44.20752" lon="5.72162">
        <ele>1309.3</ele>
        <time>2012-05-04T10:59:11Z</time>
      </trkpt>
      <trkpt lat="44.2075" lon="5.72172">
        <ele>1311.429</ele>
        <time>2012-05-04T10:59:23Z</time>
      </trkpt>
      <trkpt lat="44.20748" lon="5.72185">
        <ele>1314.12</ele>
        <time>2012-05-04T10:59:37Z</time>
      </trkpt>
      <trkpt lat="44.20743" lon="5.72194">
        <ele>1315.493</ele>
        <time>2012-05-04T10:59:47Z</time>
      </trkpt>
      <trkpt lat="44.20746" lon="5.72213">
        <ele>1317.111</ele>
        <time>2012-05-04T11:00:01Z</time>
      </trkpt>
      <trkpt lat="44.20743" lon="5.72225">
        <ele>1318.864</ele>
        <time>2012-05-04T11:00:12Z</time>
      </trkpt>
      <trkpt lat="44.20747" lon="5.72236">
        <ele>1320.682</ele>
        <time>2012-05-04T11:00:25Z</time>
      </trkpt>
      <trkpt lat="44.20748" lon="5.72247">
        <ele>1322.35</ele>
        <time>2012-05-04T11:00:35Z</time>
      </trkpt>
      <trkpt lat="44.20749" lon="5.7225">
        <ele>1323.05</ele>
        <time>2012-05-04T11:00:42Z</time>
      </trkpt>
      <trkpt lat="44.20741" lon="5.72275">
        <ele>1324.813</ele>
        <time>2012-05-04T11:00:57Z</time>
      </trkpt>
      <trkpt lat="44.20733" lon="5.72286">
        <ele>1326.887</ele>
        <time>2012-05-04T11:01:13Z</time>
      </trkpt>
      <trkpt lat="44.20729" lon="5.72307">
        <ele>1327.165</ele>
        <time>2012-05-04T11:01:53Z</time>
      </trkpt>
      <trkpt lat="44.2072" lon="5.72321">
        <ele>1329.847</ele>
        <time>2012-05-04T11:02:14Z</time>
      </trkpt>
      <trkpt lat="44.20709" lon="5.7234">
        <ele>1332.192</ele>
        <time>2012-05-04T11:02:31Z</time>
      </trkpt>
      <trkpt lat="44.20711" lon="5.72358">
        <ele>1334.557</ele>
        <time>2012-05-04T11:02:46Z</time>
      </trkpt>
      <trkpt lat="44.20714" lon="5.72374">
        <ele>1336.941</ele>
        <time>2012-05-04T11:03:04Z</time>
      </trkpt>
      <trkpt lat="44.2073" lon="5.7239">
        <ele>1339.11</ele>
        <time>2012-05-04T11:03:25Z</time>
      </trkpt>
      <trkpt lat="44.20745" lon="5.72399">
        <ele>1342.212</ele>
        <time>2012-05-04T11:03:43Z</time>
      </trkpt>
      <trkpt lat="44.20754" lon="5.7241">
        <ele>1345.191</ele>
        <time>2012-05-04T11:03:59Z</time>
      </trkpt>
      <trkpt lat="44.20752" lon="5.72423">
        <ele>1346.912</ele>
        <time>2012-05-04T11:04:11Z</time>
      </trkpt>
      <trkpt lat="44.2075" lon="5.72433">
        <ele>1347.717</ele>
        <time>2012-05-04T11:04:21Z</time>
      </trkpt>
      <trkpt lat="44.20748" lon="5.72435">
        <ele>1348.404</ele>
        <time>2012-05-04T11:04:31Z</time>
      </trkpt>
      <trkpt lat="44.20748" lon="5.72432">
        <ele>1348.206</ele>
        <time>2012-05-04T11:05:13Z</time>
      </trkpt>
      <trkpt lat="44.20746" lon="5.72433">
        <ele>1348.459</ele>
        <time>2012-05-04T11:05:42Z</time>
      </trkpt>
      <trkpt lat="44.20746" lon="5.72433">
        <ele>1348.478</ele>
        <time>2012-05-04T11:05:58Z</time>
      </trkpt>
      <trkpt lat="44.20739" lon="5.72437">
        <ele>1349.436</ele>
        <time>2012-05-04T11:06:32Z</time>
      </trkpt>
      <trkpt lat="44.20732" lon="5.72433">
        <ele>1351.126</ele>
        <time>2012-05-04T11:06:46Z</time>
      </trkpt>
      <trkpt lat="44.20723" lon="5.72417">
        <ele>1351.108</ele>
        <time>2012-05-04T11:07:03Z</time>
      </trkpt>
      <trkpt lat="44.20725" lon="5.72415">
        <ele>1351.67</ele>
        <time>2012-05-04T11:07:23Z</time>
      </trkpt>
      <trkpt lat="44.20718" lon="5.72411">
        <ele>1351.295</ele>
        <time>2012-05-04T11:08:18Z</time>
      </trkpt>
      <trkpt lat="44.20708" lon="5.72403">
        <ele>1352.255</ele>
        <time>2012-05-04T11:08:32Z</time>
      </trkpt>
      <trkpt lat="44.20694" lon="5.72392">
        <ele>1354.048</ele>
        <time>2012-05-04T11:08:46Z</time>
      </trkpt>
      <trkpt lat="44.20683" lon="5.7239">
        <ele>1356.191</ele>
        <time>2012-05-04T11:09:01Z</time>
      </trkpt>
      <trkpt lat="44.20673" lon="5.72389">
        <ele>1357.682</ele>
        <time>2012-05-04T11:09:27Z</time>
      </trkpt>
      <trkpt lat="44.20661" lon="5.72392">
        <ele>1359.511</ele>
        <time>2012-05-04T11:09:57Z</time>
      </trkpt>
      <trkpt lat="44.20653" lon="5.72392">
        <ele>1361.319</ele>
        <time>2012-05-04T11:10:09Z</time>
      </trkpt>
      <trkpt lat="44.20642" lon="5.72384">
        <ele>1363.177</ele>
        <time>2012-05-04T11:10:22Z</time>
      </trkpt>
      <trkpt lat="44.20635" lon="5.72373">
        <ele>1364.742</ele>
        <time>2012-05-04T11:10:34Z</time>
      </trkpt>
      <trkpt lat="44.20626" lon="5.72371">
        <ele>1367.803</ele>
        <time>2012-05-04T11:10:58Z</time>
      </trkpt>
      <trkpt lat="44.20618" lon="5.72363">
        <ele>1369.752</ele>
        <time>2012-05-04T11:11:16Z</time>
      </trkpt>
      <trkpt lat="44.20609" lon="5.72358">
        <ele>1371.376</ele>
        <time>2012-05-04T11:11:31Z</time>
      </trkpt>
      <trkpt lat="44.20597" lon="5.72357">
        <ele>1372.933</ele>
        <time>2012-05-04T11:11:46Z</time>
      </trkpt>
      <trkpt lat="44.20588" lon="5.72346">
        <ele>1374.507</ele>
        <time>2012-05-04T11:11:54Z</time>
      </trkpt>
      <trkpt lat="44.20582" lon="5.72348">
        <ele>1375.661</ele>
        <time>2012-05-04T11:12:03Z</time>
      </trkpt>
      <trkpt lat="44.2058" lon="5.72348">
        <ele>1377.132</ele>
        <time>2012-05-04T11:12:12Z</time>
      </trkpt>
      <trkpt lat="44.20576" lon="5.72341">
        <ele>1378.997</ele>
        <time>2012-05-04T11:12:20Z</time>
      </trkpt>
      <trkpt lat="44.20571" lon="5.72336">
        <ele>1379.882</ele>
        <time>2012-05-04T11:12:28Z</time>
      </trkpt>
      <trkpt lat="44.20564" lon="5.72332">
        <ele>1382.242</ele>
        <time>2012-05-04T11:12:42Z</time>
      </trkpt>
      <trkpt lat="44.20556" lon="5.72325">
        <ele>1382.996</ele>
        <time>2012-05-04T11:12:52Z</time>
      </trkpt>
      <trkpt lat="44.20553" lon="5.72331">
        <ele>1384.994</ele>
        <time>2012-05-04T11:13:02Z</time>
      </trkpt>
      <trkpt lat="44.20544" lon="5.72331">
        <ele>1386.968</ele>
        <time>2012-05-04T11:13:14Z</time>
      </trkpt>
      <trkpt lat="44.2054" lon="5.72332">
        <ele>1387.189</ele>
        <time>2012-05-04T11:13:20Z</time>
      </trkpt>
      <trkpt lat="44.20535" lon="5.72333">
        <ele>1389.555</ele>
        <time>2012-05-04T11:13:28Z</time>
      </trkpt>
      <trkpt lat="44.20524" lon="5.72327">
        <ele>1391.481</ele>
        <time>2012-05-04T11:13:43Z</time>
      </trkpt>
      <trkpt lat="44.20517" lon="5.72316">
        <ele>1393.695</ele>
        <time>2012-05-04T11:13:56Z</time>
      </trkpt>
      <trkpt lat="44.20504" lon="5.72305">
        <ele>1397.242</ele>
        <time>2012-05-04T11:14:17Z</time>
      </trkpt>
      <trkpt lat="44.205" lon="5.72298">
        <ele>1398.97</ele>
        <time>2012-05-04T11:14:29Z</time>
      </trkpt>
      <trkpt lat="44.20491" lon="5.72296">
        <ele>1400.14</ele>
        <time>2012-05-04T11:14:38Z</time>
      </trkpt>
      <trkpt lat="44.20486" lon="5.72289">
        <ele>1402.231</ele>
        <time>2012-05-04T11:14:48Z</time>
      </trkpt>
      <trkpt lat="44.20485" lon="5.72275">
        <ele>1403.976</ele>
        <time>2012-05-04T11:15:00Z</time>
      </trkpt>
      <trkpt lat="44.20477" lon="5.72266">
        <ele>1405.628</ele>
        <time>2012-05-04T11:15:13Z</time>
      </trkpt>
      <trkpt lat="44.20462" lon="5.72258">
        <ele>1407.389</ele>
        <time>2012-05-04T11:15:26Z</time>
      </trkpt>
      <trkpt lat="44.20457" lon="5.72251">
        <ele>1409.177</ele>
        <time>2012-05-04T11:15:38Z</time>
      </trkpt>
      <trkpt lat="44.20451" lon="5.72243">
        <ele>1409.945</ele>
        <time>2012-05-04T11:15:47Z</time>
      </trkpt>
      <trkpt lat="44.20451" lon="5.72243">
        <ele>1410.354</ele>
        <time>2012-05-04T11:16:05Z</time>
      </trkpt>
      <trkpt lat="44.20453" lon="5.72252">
        <ele>1410.96</ele>
        <time>2012-05-04T11:16:20Z</time>
      </trkpt>
      <trkpt lat="44.20452" lon="5.72247">
        <ele>1411.535</ele>
        <time>2012-05-04T11:17:10Z</time>
      </trkpt>
      <trkpt lat="44.20448" lon="5.72236">
        <ele>1412.415</ele>
        <time>2012-05-04T11:17:19Z</time>
      </trkpt>
      <trkpt lat="44.20436" lon="5.72221">
        <ele>1414.141</ele>
        <time>2012-05-04T11:17:34Z</time>
      </trkpt>
      <trkpt lat="44.20421" lon="5.72211">
        <ele>1417.227</ele>
        <time>2012-05-04T11:17:50Z</time>
      </trkpt>
      <trkpt lat="44.20417" lon="5.72204">
        <ele>1419.128</ele>
        <time>2012-05-04T11:18:02Z</time>
      </trkpt>
      <trkpt lat="44.2041" lon="5.72191">
        <ele>1421.56</ele>
        <time>2012-05-04T11:18:16Z</time>
      </trkpt>
      <trkpt lat="44.2041" lon="5.72184">
        <ele>1423.985</ele>
        <time>2012-05-04T11:18:28Z</time>
      </trkpt>
      <trkpt lat="44.20408" lon="5.72173">
        <ele>1425.774</ele>
        <time>2012-05-04T11:18:39Z</time>
      </trkpt>
      <trkpt lat="44.20403" lon="5.72167">
        <ele>1427.267</ele>
        <time>2012-05-04T11:18:51Z</time>
      </trkpt>
      <trkpt lat="44.20399" lon="5.72156">
        <ele>1430.425</ele>
        <time>2012-05-04T11:19:05Z</time>
      </trkpt>
      <trkpt lat="44.20398" lon="5.72154">
        <ele>1430.429</ele>
        <time>2012-05-04T11:19:06Z</time>
      </trkpt>
      <trkpt lat="44.20393" lon="5.72148">
        <ele>1432.092</ele>
        <time>2012-05-04T11:19:19Z</time>
      </trkpt>
      <trkpt lat="44.20393" lon="5.72137">
        <ele>1433.809</ele>
        <time>2012-05-04T11:19:29Z</time>
      </trkpt>
      <trkpt lat="44.20385" lon="5.72131">
        <ele>1435.274</ele>
        <time>2012-05-04T11:19:38Z</time>
      </trkpt>
      <trkpt lat="44.20375" lon="5.72138">
        <ele>1438.03</ele>
        <time>2012-05-04T11:19:56Z</time>
      </trkpt>
      <trkpt lat="44.20365" lon="5.72138">
        <ele>1439.858</ele>
        <time>2012-05-04T11:20:07Z</time>
      </trkpt>
      <trkpt lat="44.20364" lon="5.72129">
        <ele>1442.25</ele>
        <time>2012-05-04T11:20:19Z</time>
      </trkpt>
      <trkpt lat="44.20361" lon="5.7212">
        <ele>1443.761</ele>
        <time>2012-05-04T11:20:30Z</time>
      </trkpt>
      <trkpt lat="44.20353" lon="5.72113">
        <ele>1445.777</ele>
        <time>2012-05-04T11:20:43Z</time>
      </trkpt>
      <trkpt lat="44.2035" lon="5.72111">
        <ele>1447.087</ele>
        <time>2012-05-04T11:20:53Z</time>
      </trkpt>
      <trkpt lat="44.20344" lon="5.72104">
        <ele>1449.384</ele>
        <time>2012-05-04T11:21:05Z</time>
      </trkpt>
      <trkpt lat="44.20338" lon="5.72098">
        <ele>1451.051</ele>
        <time>2012-05-04T11:21:17Z</time>
      </trkpt>
      <trkpt lat="44.20331" lon="5.72092">
        <ele>1452.926</ele>
        <time>2012-05-04T11:21:29Z</time>
      </trkpt>
      <trkpt lat="44.20332" lon="5.72083">
        <ele>1454.609</ele>
        <time>2012-05-04T11:21:40Z</time>
      </trkpt>
      <trkpt lat="44.20334" lon="5.72072">
        <ele>1456.988</ele>
        <time>2012-05-04T11:21:55Z</time>
      </trkpt>
      <trkpt lat="44.20336" lon="5.72063">
        <ele>1459.94</ele>
        <time>2012-05-04T11:22:08Z</time>
      </trkpt>
      <trkpt lat="44.20335" lon="5.72055">
        <ele>1462.117</ele>
        <time>2012-05-04T11:22:19Z</time>
      </trkpt>
      <trkpt lat="44.20333" lon="5.72044">
        <ele>1463.012</ele>
        <time>2012-05-04T11:22:29Z</time>
      </trkpt>
      <trkpt lat="44.20323" lon="5.7203">
        <ele>1464.248</ele>
        <time>2012-05-04T11:22:40Z</time>
      </trkpt>
      <trkpt lat="44.20321" lon="5.72023">
        <ele>1465.957</ele>
        <time>2012-05-04T11:22:51Z</time>
      </trkpt>
      <trkpt lat="44.20316" lon="5.72008">
        <ele>1468.492</ele>
        <time>2012-05-04T11:23:08Z</time>
      </trkpt>
      <trkpt lat="44.20309" lon="5.71994">
        <ele>1469.358</ele>
        <time>2012-05-04T11:23:19Z</time>
      </trkpt>
      <trkpt lat="44.20312" lon="5.71983">
        <ele>1472.775</ele>
        <time>2012-05-04T11:23:31Z</time>
      </trkpt>
      <trkpt lat="44.2031" lon="5.71975">
        <ele>1472.956</ele>
        <time>2012-05-04T11:23:40Z</time>
      </trkpt>
      <trkpt lat="44.20305" lon="5.71962">
        <ele>1474.842</ele>
        <time>2012-05-04T11:23:54Z</time>
      </trkpt>
      <trkpt lat="44.20295" lon="5.71945">
        <ele>1476.621</ele>
        <time>2012-05-04T11:24:07Z</time>
      </trkpt>
      <trkpt lat="44.20297" lon="5.71929">
        <ele>1478.972</ele>
        <time>2012-05-04T11:24:23Z</time>
      </trkpt>
      <trkpt lat="44.20296" lon="5.71922">
        <ele>1479.676</ele>
        <time>2012-05-04T11:24:30Z</time>
      </trkpt>
      <trkpt lat="44.20293" lon="5.7192">
        <ele>1481.548</ele>
        <time>2012-05-04T11:24:38Z</time>
      </trkpt>
      <trkpt lat="44.20289" lon="5.71918">
        <ele>1482.596</ele>
        <time>2012-05-04T11:24:45Z</time>
      </trkpt>
      <trkpt lat="44.20272" lon="5.71925">
        <ele>1484.186</ele>
        <time>2012-05-04T11:24:57Z</time>
      </trkpt>
      <trkpt lat="44.20269" lon="5.71932">
        <ele>1486.232</ele>
        <time>2012-05-04T11:25:08Z</time>
      </trkpt>
      <trkpt lat="44.20261" lon="5.71927">
        <ele>1489.989</ele>
        <time>2012-05-04T11:25:25Z</time>
      </trkpt>
      <trkpt lat="44.2026" lon="5.71926">
        <ele>1492.707</ele>
        <time>2012-05-04T11:25:44Z</time>
      </trkpt>
      <trkpt lat="44.2026" lon="5.71927">
        <ele>1495.072</ele>
        <time>2012-05-04T11:25:56Z</time>
      </trkpt>
      <trkpt lat="44.20259" lon="5.71935">
        <ele>1497.141</ele>
        <time>2012-05-04T11:26:11Z</time>
      </trkpt>
      <trkpt lat="44.20255" lon="5.7194">
        <ele>1499.143</ele>
        <time>2012-05-04T11:26:30Z</time>
      </trkpt>
      <trkpt lat="44.20263" lon="5.71953">
        <ele>1498.387</ele>
        <time>2012-05-04T11:26:45Z</time>
      </trkpt>
      <trkpt lat="44.20264" lon="5.71956">
        <ele>1498.443</ele>
        <time>2012-05-04T11:26:59Z</time>
      </trkpt>
      <trkpt lat="44.20258" lon="5.71961">
        <ele>1499.663</ele>
        <time>2012-05-04T11:27:43Z</time>
      </trkpt>
      <trkpt lat="44.20257" lon="5.71965">
        <ele>1500.274</ele>
        <time>2012-05-04T11:27:47Z</time>
      </trkpt>
      <trkpt lat="44.20255" lon="5.71976">
        <ele>1502.127</ele>
        <time>2012-05-04T11:28:01Z</time>
      </trkpt>
      <trkpt lat="44.2025" lon="5.71987">
        <ele>1505.067</ele>
        <time>2012-05-04T11:28:12Z</time>
      </trkpt>
      <trkpt lat="44.20249" lon="5.71991">
        <ele>1505.706</ele>
        <time>2012-05-04T11:28:22Z</time>
      </trkpt>
      <trkpt lat="44.20246" lon="5.71993">
        <ele>1505.928</ele>
        <time>2012-05-04T11:28:31Z</time>
      </trkpt>
      <trkpt lat="44.20245" lon="5.71988">
        <ele>1506.195</ele>
        <time>2012-05-04T11:28:40Z</time>
      </trkpt>
      <trkpt lat="44.20244" lon="5.71989">
        <ele>1505.941</ele>
        <time>2012-05-04T11:32:28Z</time>
      </trkpt>
      <trkpt lat="44.20245" lon="5.71989">
        <ele>1506.591</ele>
        <time>2012-05-04T11:32:48Z</time>
      </trkpt>
      <trkpt lat="44.20241" lon="5.71979">
        <ele>1508.822</ele>
        <time>2012-05-04T11:32:59Z</time>
      </trkpt>
      <trkpt lat="44.20239" lon="5.71975">
        <ele>1509.123</ele>
        <time>2012-05-04T11:33:02Z</time>
      </trkpt>
      <trkpt lat="44.20236" lon="5.71968">
        <ele>1510.111</ele>
        <time>2012-05-04T11:33:11Z</time>
      </trkpt>
      <trkpt lat="44.20234" lon="5.71955">
        <ele>1512.195</ele>
        <time>2012-05-04T11:33:24Z</time>
      </trkpt>
      <trkpt lat="44.20233" lon="5.7195">
        <ele>1512.247</ele>
        <time>2012-05-04T11:33:29Z</time>
      </trkpt>
      <trkpt lat="44.20232" lon="5.71946">
        <ele>1513.175</ele>
        <time>2012-05-04T11:33:33Z</time>
      </trkpt>
      <trkpt lat="44.2023" lon="5.71938">
        <ele>1514.546</ele>
        <time>2012-05-04T11:33:42Z</time>
      </trkpt>
      <trkpt lat="44.20229" lon="5.71935">
        <ele>1515.235</ele>
        <time>2012-05-04T11:33:45Z</time>
      </trkpt>
      <trkpt lat="44.20225" lon="5.71921">
        <ele>1516.367</ele>
        <time>2012-05-04T11:33:56Z</time>
      </trkpt>
      <trkpt lat="44.20221" lon="5.7191">
        <ele>1517.611</ele>
        <time>2012-05-04T11:34:07Z</time>
      </trkpt>
      <trkpt lat="44.20219" lon="5.71906">
        <ele>1518.295</ele>
        <time>2012-05-04T11:34:14Z</time>
      </trkpt>
      <trkpt lat="44.20219" lon="5.71897">
        <ele>1519.994</ele>
        <time>2012-05-04T11:34:25Z</time>
      </trkpt>
      <trkpt lat="44.20217" lon="5.71887">
        <ele>1521.592</ele>
        <time>2012-05-04T11:34:37Z</time>
      </trkpt>
      <trkpt lat="44.20216" lon="5.71883">
        <ele>1522.119</ele>
        <time>2012-05-04T11:34:42Z</time>
      </trkpt>
      <trkpt lat="44.20216" lon="5.71876">
        <ele>1522.788</ele>
        <time>2012-05-04T11:34:49Z</time>
      </trkpt>
      <trkpt lat="44.20216" lon="5.71866">
        <ele>1524.297</ele>
        <time>2012-05-04T11:34:59Z</time>
      </trkpt>
      <trkpt lat="44.20216" lon="5.71855">
        <ele>1525.496</ele>
        <time>2012-05-04T11:35:09Z</time>
      </trkpt>
      <trkpt lat="44.20214" lon="5.71847">
        <ele>1526.554</ele>
        <time>2012-05-04T11:35:18Z</time>
      </trkpt>
      <trkpt lat="44.20213" lon="5.71838">
        <ele>1528.291</ele>
        <time>2012-05-04T11:35:29Z</time>
      </trkpt>
      <trkpt lat="44.20212" lon="5.71829">
        <ele>1529.621</ele>
        <time>2012-05-04T11:35:39Z</time>
      </trkpt>
      <trkpt lat="44.20212" lon="5.71817">
        <ele>1531.302</ele>
        <time>2012-05-04T11:35:50Z</time>
      </trkpt>
      <trkpt lat="44.2021" lon="5.71809">
        <ele>1532.241</ele>
        <time>2012-05-04T11:35:58Z</time>
      </trkpt>
      <trkpt lat="44.20209" lon="5.71807">
        <ele>1532.83</ele>
        <time>2012-05-04T11:36:01Z</time>
      </trkpt>
      <trkpt lat="44.20207" lon="5.71798">
        <ele>1534.434</ele>
        <time>2012-05-04T11:36:11Z</time>
      </trkpt>
      <trkpt lat="44.20206" lon="5.71787">
        <ele>1536.282</ele>
        <time>2012-05-04T11:36:23Z</time>
      </trkpt>
      <trkpt lat="44.20205" lon="5.71778">
        <ele>1537.908</ele>
        <time>2012-05-04T11:36:32Z</time>
      </trkpt>
      <trkpt lat="44.20205" lon="5.71777">
        <ele>1538.008</ele>
        <time>2012-05-04T11:36:33Z</time>
      </trkpt>
      <trkpt lat="44.20203" lon="5.71771">
        <ele>1540.266</ele>
        <time>2012-05-04T11:36:43Z</time>
      </trkpt>
      <trkpt lat="44.20203" lon="5.71769">
        <ele>1540.348</ele>
        <time>2012-05-04T11:36:46Z</time>
      </trkpt>
      <trkpt lat="44.20201" lon="5.71762">
        <ele>1542.475</ele>
        <time>2012-05-04T11:36:55Z</time>
      </trkpt>
      <trkpt lat="44.20199" lon="5.71753">
        <ele>1543.622</ele>
        <time>2012-05-04T11:37:06Z</time>
      </trkpt>
      <trkpt lat="44.20197" lon="5.71751">
        <ele>1544.201</ele>
        <time>2012-05-04T11:37:09Z</time>
      </trkpt>
      <trkpt lat="44.20196" lon="5.71744">
        <ele>1545.66</ele>
        <time>2012-05-04T11:37:16Z</time>
      </trkpt>
      <trkpt lat="44.20195" lon="5.71738">
        <ele>1546.269</ele>
        <time>2012-05-04T11:37:24Z</time>
      </trkpt>
      <trkpt lat="44.20194" lon="5.7173">
        <ele>1547.231</ele>
        <time>2012-05-04T11:37:31Z</time>
      </trkpt>
      <trkpt lat="44.20195" lon="5.71722">
        <ele>1548.735</ele>
        <time>2012-05-04T11:37:41Z</time>
      </trkpt>
      <trkpt lat="44.20194" lon="5.71714">
        <ele>1550.234</ele>
        <time>2012-05-04T11:37:51Z</time>
      </trkpt>
      <trkpt lat="44.20193" lon="5.71706">
        <ele>1552.017</ele>
        <time>2012-05-04T11:38:01Z</time>
      </trkpt>
      <trkpt lat="44.20189" lon="5.71698">
        <ele>1553.774</ele>
        <time>2012-05-04T11:38:11Z</time>
      </trkpt>
      <trkpt lat="44.20189" lon="5.7169">
        <ele>1554.971</ele>
        <time>2012-05-04T11:38:21Z</time>
      </trkpt>
      <trkpt lat="44.20186" lon="5.71681">
        <ele>1557.624</ele>
        <time>2012-05-04T11:38:32Z</time>
      </trkpt>
      <trkpt lat="44.20185" lon="5.71677">
        <ele>1559.256</ele>
        <time>2012-05-04T11:38:40Z</time>
      </trkpt>
      <trkpt lat="44.20184" lon="5.71671">
        <ele>1560.223</ele>
        <time>2012-05-04T11:38:46Z</time>
      </trkpt>
      <trkpt lat="44.20183" lon="5.71665">
        <ele>1560.964</ele>
        <time>2012-05-04T11:38:53Z</time>
      </trkpt>
      <trkpt lat="44.20182" lon="5.71663">
        <ele>1561.063</ele>
        <time>2012-05-04T11:38:56Z</time>
      </trkpt>
      <trkpt lat="44.2018" lon="5.71654">
        <ele>1563.181</ele>
        <time>2012-05-04T11:39:07Z</time>
      </trkpt>
      <trkpt lat="44.2018" lon="5.71646">
        <ele>1565.048</ele>
        <time>2012-05-04T11:39:17Z</time>
      </trkpt>
      <trkpt lat="44.20175" lon="5.71639">
        <ele>1566.724</ele>
        <time>2012-05-04T11:39:29Z</time>
      </trkpt>
      <trkpt lat="44.20172" lon="5.71634">
        <ele>1567.944</ele>
        <time>2012-05-04T11:39:37Z</time>
      </trkpt>
      <trkpt lat="44.20168" lon="5.71629">
        <ele>1569.58</ele>
        <time>2012-05-04T11:39:45Z</time>
      </trkpt>
      <trkpt lat="44.20166" lon="5.71622">
        <ele>1571.243</ele>
        <time>2012-05-04T11:39:54Z</time>
      </trkpt>
      <trkpt lat="44.20162" lon="5.71614">
        <ele>1573.357</ele>
        <time>2012-05-04T11:40:06Z</time>
      </trkpt>
      <trkpt lat="44.20161" lon="5.71606">
        <ele>1574.545</ele>
        <time>2012-05-04T11:40:15Z</time>
      </trkpt>
      <trkpt lat="44.2016" lon="5.716">
        <ele>1575.549</ele>
        <time>2012-05-04T11:40:22Z</time>
      </trkpt>
      <trkpt lat="44.20157" lon="5.71591">
        <ele>1577.853</ele>
        <time>2012-05-04T11:40:31Z</time>
      </trkpt>
      <trkpt lat="44.20155" lon="5.71583">
        <ele>1578.63</ele>
        <time>2012-05-04T11:40:41Z</time>
      </trkpt>
      <trkpt lat="44.20154" lon="5.71582">
        <ele>1578.669</ele>
        <time>2012-05-04T11:40:43Z</time>
      </trkpt>
      <trkpt lat="44.20151" lon="5.71577">
        <ele>1580.229</ele>
        <time>2012-05-04T11:40:50Z</time>
      </trkpt>
      <trkpt lat="44.20148" lon="5.71568">
        <ele>1581.773</ele>
        <time>2012-05-04T11:41:02Z</time>
      </trkpt>
      <trkpt lat="44.20146" lon="5.71557">
        <ele>1583.292</ele>
        <time>2012-05-04T11:41:13Z</time>
      </trkpt>
      <trkpt lat="44.20145" lon="5.71546">
        <ele>1584.942</ele>
        <time>2012-05-04T11:41:25Z</time>
      </trkpt>
      <trkpt lat="44.20144" lon="5.7154">
        <ele>1586.968</ele>
        <time>2012-05-04T11:41:35Z</time>
      </trkpt>
      <trkpt lat="44.20138" lon="5.71532">
        <ele>1588.212</ele>
        <time>2012-05-04T11:41:45Z</time>
      </trkpt>
      <trkpt lat="44.20138" lon="5.71529">
        <ele>1590.158</ele>
        <time>2012-05-04T11:41:48Z</time>
      </trkpt>
      <trkpt lat="44.20134" lon="5.71523">
        <ele>1590.523</ele>
        <time>2012-05-04T11:41:59Z</time>
      </trkpt>
      <trkpt lat="44.20127" lon="5.71512">
        <ele>1592.532</ele>
        <time>2012-05-04T11:42:10Z</time>
      </trkpt>
      <trkpt lat="44.20124" lon="5.71505">
        <ele>1594.328</ele>
        <time>2012-05-04T11:42:21Z</time>
      </trkpt>
    </trkseg>
  </trk>
</gpx>